This is the latest recevied weather packets stored in our database for station/object WB0RXX. If no packets are shown the sender has not sent any weather packets the latest 10 day(s).
| Time | Temp. | Humidity | Pressure | Rain* | Wind** | Luminosity | Snow |
|---|---|---|---|---|---|---|---|
| 1777822204 | 15.56° C | 50% | 1010.8 hPa | 0 mm | - | - | - |
| 1777821604 | 15.56° C | 50% | 1010.8 hPa | 0 mm | - | - | - |
| 1777821004 | 15° C | 52% | 1010.8 hPa | 0 mm | - | - | - |
| 1777820404 | 14.44° C | 53% | 1010.7 hPa | 0 mm | - | - | - |
| 1777819803 | 13.89° C | 55% | 1010.7 hPa | 0 mm | - | - | - |
| 1777819218 | 13.89° C | 57% | 1010.7 hPa | 0 mm | - | - | - |
| 1777818603 | 12.78° C | 59% | 1010.8 hPa | 0 mm | - | - | - |
| 1777818003 | 12.22° C | 63% | 1010.7 hPa | 0 mm | - | - | - |
| 1777817404 | 12.22° C | 65% | 1010.7 hPa | 0 mm | - | - | - |
| 1777816804 | 11.67° C | 67% | 1010.6 hPa | 0 mm | - | - | - |
| 1777816203 | 10.56° C | 68% | 1010.6 hPa | 0 mm | - | - | - |
| 1777815604 | 10.56° C | 70% | 1010.5 hPa | 0 mm | - | - | - |
| 1777815003 | 10° C | 71% | 1010.5 hPa | 0 mm | - | - | - |
| 1777814404 | 10° C | 71% | 1010.4 hPa | 0 mm | - | - | - |
| 1777813803 | 10° C | 71% | 1010.3 hPa | 0 mm | - | - | - |
| 1777813203 | 9.44° C | 72% | 1010 hPa | 0 mm | - | - | - |
| 1777812603 | 9.44° C | 71% | 1009.9 hPa | 0 mm | - | - | - |
| 1777812004 | 8.89° C | 72% | 1009.9 hPa | 0 mm | - | - | - |
| 1777811403 | 8.89° C | 73% | 1009.8 hPa | 0 mm | - | - | - |
| 1777810802 | 8.33° C | 74% | 1009.7 hPa | 0 mm | - | - | - |
| 1777810203 | 8.33° C | 75% | 1009.5 hPa | 0 mm | - | - | - |
| 1777809603 | 8.33° C | 75% | 1009.3 hPa | 0 mm | - | - | - |
| 1777809003 | 7.78° C | 75% | 1009.2 hPa | 0 mm | - | - | - |
| 1777808403 | 7.78° C | 75% | 1008.9 hPa | 0 mm | - | - | - |
| 1777807804 | 7.78° C | 75% | 1008.7 hPa | 0 mm | - | - | - |
* Rain latest hour (hover to see other rain measurements)
** Current wind speed in m/s (hover to see current wind gust speed)